Zurück zum Katalog

SL-12 R/B(2)

AktivGEO
NORAD 13954·ROCKET BODY·🇷🇺 Russia

Gestartet Nov 26, 1982 von Baikonur Cosmodrome

Loading…

TLE

AktuellSource: Space-Track

Epoche: Sep 14, 2026, 03:52 UTC

1 13954U 82113F   26257.16145714 -.00000045  00000-0  00000-0 0  9998
2 13954   9.0860 310.2781 0024871 292.3078 239.5151  0.97569795120750

Verfolge SL-12 R/B(2) in Echtzeit mit AllMySat

Download on the App Store